This is the latest recevied weather packets stored in our database for station/object N0NB. If no packets are shown the sender has not sent any weather packets the latest 10 day(s).
| Time | Temp. | Humidity | Pressure | Rain* | Wind** | Luminosity | Snow |
|---|---|---|---|---|---|---|---|
| 1777569317 | 16.11° C | 55% | 1017.8 hPa | 0 mm | - | 834 W/m² | - |
| 1777568716 | 15.56° C | 52% | 1017.7 hPa | 0 mm | - | 802 W/m² | - |
| 1777568116 | 16.11° C | 51% | 1017.7 hPa | 0 mm | - | 701 W/m² | - |
| 1777567516 | 16.11° C | 53% | 1017.7 hPa | 0 mm | - | 702 W/m² | - |
| 1777566916 | 16.11° C | 54% | 1017.8 hPa | 0 mm | - | 699 W/m² | - |
| 1777566316 | 16.11° C | 55% | 1017.8 hPa | 0 mm | - | 614 W/m² | - |
| 1777565716 | 15.56° C | 53% | 1017.8 hPa | 0 mm | - | 742 W/m² | - |
| 1777565116 | 15.56° C | 53% | 1017.8 hPa | 0 mm | - | 655 W/m² | - |
| 1777564516 | 15° C | 54% | 1017.7 hPa | 0 mm | - | 620 W/m² | - |
| 1777563916 | 15° C | 55% | 1017.7 hPa | 0 mm | - | 619 W/m² | - |
| 1777563316 | 15° C | 60% | 1017.7 hPa | 0 mm | - | 540 W/m² | - |
| 1777562716 | 14.44° C | 62% | 1017.6 hPa | 0 mm | - | 484 W/m² | - |
| 1777562116 | 14.44° C | 60% | 1017.7 hPa | 0 mm | - | 510 W/m² | - |
| 1777561516 | 14.44° C | 61% | 1017.7 hPa | 0 mm | - | 464 W/m² | - |
| 1777560916 | 13.89° C | 65% | 1017.6 hPa | 0 mm | - | 504 W/m² | - |
| 1777560316 | 13.33° C | 67% | 1017.7 hPa | 0 mm | - | 436 W/m² | - |
| 1777559716 | 13.33° C | 68% | 1017.7 hPa | 0 mm | - | 375 W/m² | - |
| 1777559116 | 12.78° C | 70% | 1017.8 hPa | 0 mm | - | 352 W/m² | - |
| 1777558516 | 12.22° C | 73% | 1018 hPa | 0 mm | - | 308 W/m² | - |
| 1777557916 | 12.22° C | 73% | 1017.9 hPa | 0 mm | - | 335 W/m² | - |
| 1777557316 | 11.67° C | 75% | 1017.7 hPa | 0 mm | - | 325 W/m² | - |
| 1777556716 | 11.11° C | 76% | 1018 hPa | 0 mm | - | 297 W/m² | - |
| 1777556116 | 11.11° C | 77% | 1018 hPa | 0 mm | - | 159 W/m² | - |
| 1777555516 | 10.56° C | 78% | 1017.9 hPa | 0 mm | - | 187 W/m² | - |
| 1777554916 | 10° C | 79% | 1018 hPa | 0 mm | - | 187 W/m² | - |
* Rain latest hour (hover to see other rain measurements)
** Current wind speed in m/s (hover to see current wind gust speed)